Montego Bay, Jamaica

7:02 AM EST on December 13, 2017 (GMT -0500)
Sangster International

Weather History for MKJS - August, 2014

Change the Weather History Date:

Wednesday, August 13, 2014

  Actual Average Record
Temperature  
Mean Temperature 86 °F -  
Max Temperature 93 °F 87 °F 93 °F (2001)
Min Temperature 79 °F 77 °F 75 °F (2017)
Cooling Degree Days 21    
Growing Degree Days 36 (Base 50)    
Moisture  
Dew Point 76 °F    
Average Humidity 77    
Maximum Humidity 89    
Minimum Humidity 66    
Precipitation  
Precipitation 0.03 in - - ()
Sea Level Pressure  
Sea Level Pressure 29.97 in    
Wind  
Wind Speed 6 mph ()    
Max Wind Speed 21 mph    
Max Gust Speed -    
Visibility 7.9 miles    
Events Thunderstorm    
Averages and records for this station are not official NWS values.
T = Trace of Precipitation, MM = Missing Value Source: Averaged Metar Reports

Daily Weather History Graph

Daily Weather History Graph

Search for Another Location

Airport or City:

Trip Planner

Search our weather history database for the weather conditions in past years. The results will help you decide how hot, cold, wet, or windy it might be!

Date:

Astronomy

Aug. 13, 2014 Rise Set
Actual Time 5:52 AM EST 6:39 PM EST
Civil Twilight 5:30 AM EST 7:02 PM EST
Nautical Twilight 5:03 AM EST 7:29 PM EST
Astronomical Twilight 4:36 AM EST 7:56 PM EST
Moon 9:03 PM EST 8:43 AM EST
Length of Visible Light 13h 32m
Length of Day
12h 47m
Waning Gibbous, 87% of the Moon is Illuminated
Aug 13
Waning Gibbous
Aug 17
Last Quarter
Aug 25
New
Sep 2
First Quarter
Sep 8
Full

Hourly Weather History & Observations

Time (EST) Temp. Heat Index Dew Point Humidity Pressure Visibility Wind Dir Wind Speed Gust Speed Precip Events Conditions
12:00 AM 82.4 °F 88.2 °F 73.4 °F 74% 30.01 in 6.2 mi ESE 3.5 mph - N/A   Partly Cloudy
1:00 AM 82 °F - 74 °F 70% 29.99 in 12 mi East 5.8 mph - -   Haze
1:00 AM 82.4 °F 88.2 °F 73.4 °F 74% 29.98 in 6.2 mi East 5.8 mph - N/A   Partly Cloudy
2:00 AM 82.4 °F 87.2 °F 71.6 °F 70% 29.98 in 6.2 mi ESE 4.6 mph - N/A   Partly Cloudy
3:00 AM 80.6 °F 84.6 °F 71.6 °F 74% 29.98 in 6.2 mi East 3.5 mph - N/A   Partly Cloudy
4:00 AM 80 °F - 71 °F 67% 29.98 in 12 mi East 3.5 mph - -   Haze
4:00 AM 80.6 °F 84.6 °F 71.6 °F 74% 29.98 in 6.2 mi East 3.5 mph - N/A   Partly Cloudy
5:00 AM 80.6 °F 85.4 °F 73.4 °F 79% 29.98 in 6.2 mi ESE 6.9 mph - N/A   Partly Cloudy
6:00 AM 80.6 °F 85.4 °F 73.4 °F 79% 29.98 in 6.2 mi SE 4.6 mph - N/A   Partly Cloudy
7:00 AM 82 °F - 73 °F 68% 29.99 in 14 mi SE 4.6 mph - -   Haze
7:00 AM 82.4 °F 88.2 °F 73.4 °F 74% 29.98 in 6.2 mi SE 4.6 mph - N/A   Partly Cloudy
8:00 AM 86.0 °F 96.9 °F 77.0 °F 74% 29.98 in 6.2 mi East 8.1 mph - N/A   Partly Cloudy
9:00 AM 84.2 °F 94.1 °F 77.0 °F 79% 30.01 in 6.2 mi East 8.1 mph - N/A   Mostly Cloudy
10:00 AM 86 °F - 77 °F 69% 30.01 in 15 mi East 9.2 mph - -   Haze
10:00 AM 86.0 °F 96.9 °F 77.0 °F 74% 30.01 in 6.2 mi East 9.2 mph - N/A   Mostly Cloudy
11:00 AM 86.0 °F 99.3 °F 78.8 °F 79% 29.98 in 6.2 mi ENE 10.4 mph - N/A   Partly Cloudy
12:00 PM 87.8 °F 104.9 °F 80.6 °F 79% 29.98 in 6.2 mi ENE 16.1 mph - N/A   Scattered Clouds
1:00 PM 90 °F - 80 °F 66% 29.97 in 15 mi East 19.6 mph - -   Haze
1:00 PM 89.6 °F 108.2 °F 80.6 °F 75% 29.95 in 6.2 mi East 19.6 mph - N/A   Partly Cloudy
2:00 PM 89.6 °F 104.7 °F 78.8 °F 70% 29.95 in 6.2 mi ENE 20.7 mph - N/A   Partly Cloudy
2:11 PM 89.6 °F 104.7 °F 78.8 °F 70% 29.92 in 6.2 mi ENE 19.6 mph - N/A Thunderstorm Thunderstorm
3:00 PM 86.0 °F 99.3 °F 78.8 °F 79% 29.92 in 6.2 mi East 16.1 mph - N/A   Partly Cloudy
3:47 PM 86.0 °F 99.3 °F 78.8 °F 79% 29.95 in 6.2 mi East 11.5 mph - N/A Thunderstorm Thunderstorm
4:00 PM 86 °F - 78 °F 71% 29.94 in 15 mi East 13.8 mph - - Thunderstorm Thunderstorm
4:00 PM 86.0 °F 99.3 °F 78.8 °F 79% 29.92 in 6.2 mi East 13.8 mph - N/A Thunderstorm Thunderstorm
4:45 PM 80.6 °F 87.1 °F 77.0 °F 89% 29.95 in 6.2 mi SSE 3.5 mph - N/A   Mostly Cloudy
5:00 PM 82.4 °F 90.9 °F 77.0 °F 84% 29.95 in 6.2 mi SE 5.8 mph - N/A   Mostly Cloudy
6:00 PM 82.4 °F 90.9 °F 77.0 °F 84% 29.95 in 6.2 mi Variable 2.3 mph - N/A   Mostly Cloudy
7:00 PM 82 °F - 77 °F 79% 29.97 in 14 mi South 3.5 mph - -   Haze
7:00 PM 82.4 °F 90.9 °F 77.0 °F 84% 29.95 in 6.2 mi South 3.5 mph - N/A   Scattered Clouds
8:00 PM 80.6 °F 87.1 °F 77.0 °F 89% 29.98 in 6.2 mi ESE 3.5 mph - N/A Thunderstorm Partly Cloudy
10:00 PM 80 °F - 76 °F 84% 30.03 in 12 mi 1.2 mph - -   Partly Cloudy
10:00 PM 80.6 °F 87.1 °F 77.0 °F 89% 30.01 in 6.2 mi Variable 1.2 mph - N/A Thunderstorm Scattered Clouds
11:00 PM 80.6 °F 87.1 °F 77.0 °F 89% 30.01 in 6.2 mi Variable 1.2 mph - N/A Thunderstorm Partly Cloudy